TA3ONK-13 Weather Reports


time (UTC)temp
F
wind
direction
speed
knots
gust
knots
rain 1hr
in
rain 24hr
in
rain mn
in
humidity
%
barometer
mb
20260902153003 98 0 0.0 0.0 0.00 0.00 0.00 26 1014.5
20260902151502 99 0 0.0 0.0 0.00 0.00 0.00 26 1014.5
20260902150005 99 0 0.0 0.0 0.00 0.00 0.00 25 1014.6
20260902144502 101 0 0.0 0.0 0.00 0.00 0.00 24 1014.6
20260902143004 101 0 0.0 0.0 0.00 0.00 0.00 24 1014.7
20260902141503 101 0 0.0 0.0 0.00 0.00 0.00 24 1014.9
20260902140004 104 0 0.0 0.0 0.00 0.00 0.00 23 1015.1
20260902134502 102 0 0.0 0.0 0.00 0.00 0.00 23 1015.1
20260902133004 102 0 0.0 0.0 0.00 0.00 0.00 23 1015.4
20260902131503 101 0 0.0 0.0 0.00 0.00 0.00 21 1015.6
20260902130003 101 0 0.0 0.0 0.00 0.00 0.00 22 1015.6
20260902124504 101 0 0.0 0.0 0.00 0.00 0.00 20 1015.9
20260902123002 99 0 0.0 0.0 0.00 0.00 0.00 26 1016.0
20260902121503 98 0 0.0 0.0 0.00 0.00 0.00 28 1016.2
20260902120004 97 0 0.0 0.0 0.00 0.00 0.00 30 1016.3
20260902114502 97 0 0.0 0.0 0.00 0.00 0.00 29 1016.4
20260902113003 96 0 0.0 0.0 0.00 0.00 0.00 30 1016.5
20260902111503 97 0 0.0 0.0 0.00 0.00 0.00 30 1016.8
20260902110003 95 0 0.0 0.0 0.00 0.00 0.00 32 1016.8
20260902104503 95 0 0.0 0.0 0.00 0.00 0.00 30 1016.7
20260902103003 94 0 0.0 0.0 0.00 0.00 0.00 29 1016.8
20260902101503 94 0 0.0 0.0 0.00 0.00 0.00 30 1016.9
20260902100002 94 0 0.0 0.0 0.00 0.00 0.00 30 1017.0
20260902094503 94 0 0.0 0.0 0.00 0.00 0.00 35 1017.2
20260902093003 96 0 0.0 0.0 0.00 0.00 0.00 35 1017.3
20260902091503 105 0 0.0 0.0 0.00 0.00 0.00 29 1017.5
20260902090004 105 0 0.0 0.0 0.00 0.00 0.00 31 1017.7
20260902084503 109 0 0.0 0.0 0.00 0.00 0.00 28 1017.8
20260902083003 109 0 0.0 0.0 0.00 0.00 0.00 29 1017.9
20260902081502 108 0 0.0 0.0 0.00 0.00 0.00 28 1017.7
20260902080004 107 0 0.0 0.0 0.00 0.00 0.00 27 1017.3
20260902074514 103 0 0.0 0.0 0.00 0.00 0.00 33 1018.0
20260902073003 88 0 0.0 0.0 0.00 0.00 0.00 48 1017.8
20260902071502 86 0 0.0 0.0 0.00 0.00 0.00 52 1017.5
20260902070004 86 0 0.0 0.0 0.00 0.00 0.00 51 1017.5
20260902064503 88 0 0.0 0.0 0.00 0.00 0.00 49 1017.5
20260902063003 84 0 0.0 0.0 0.00 0.00 0.00 53 1017.3
20260902061502 83 0 0.0 0.0 0.00 0.00 0.00 53 1017.1
20260902060003 84 0 0.0 0.0 0.00 0.00 0.00 52 1017.3
20260902054502 82 0 0.0 0.0 0.00 0.00 0.00 53 1017.3
20260902053002 83 0 0.0 0.0 0.00 0.00 0.00 52 1017.3
20260902051503 82 0 0.0 0.0 0.00 0.00 0.00 53 1017.3
20260902050005 82 0 0.0 0.0 0.00 0.00 0.00 53 1017.2
20260902044503 81 0 0.0 0.0 0.00 0.00 0.00 55 1017.1
20260902043002 81 0 0.0 0.0 0.00 0.00 0.00 55 1017.1
20260902041502 79 0 0.0 0.0 0.00 0.00 0.00 54 1017.0
20260902040002 79 0 0.0 0.0 0.00 0.00 0.00 54 1017.0
20260902034504 77 0 0.0 0.0 0.00 0.00 0.00 58 1016.9
20260902033004 80 0 0.0 0.0 0.00 0.00 0.00 55 1016.8
20260902031502 80 0 0.0 0.0 0.00 0.00 0.00 55 1016.7
20260902030004 80 0 0.0 0.0 0.00 0.00 0.00 55 1016.7
20260902024502 79 0 0.0 0.0 0.00 0.00 0.00 57 1016.6
20260902023003 80 0 0.0 0.0 0.00 0.00 0.00 54 1016.5
20260902021502 81 0 0.0 0.0 0.00 0.00 0.00 54 1016.5
20260902020003 80 0 0.0 0.0 0.00 0.00 0.00 54 1016.5
20260902014502 81 0 0.0 0.0 0.00 0.00 0.00 53 1016.5
20260902013013 81 0 0.0 0.0 0.00 0.00 0.00 53 1016.5
20260902011502 82 0 0.0 0.0 0.00 0.00 0.00 52 1016.5
20260902010004 82 0 0.0 0.0 0.00 0.00 0.00 52 1016.4
20260902004502 82 0 0.0 0.0 0.00 0.00 0.00 52 1016.4
20260902003003 82 0 0.0 0.0 0.00 0.00 0.00 51 1016.4
20260902001502 83 0 0.0 0.0 0.00 0.00 0.00 51 1016.3
20260902000003 83 0 0.0 0.0 0.00 0.00 0.00 49 1016.2
20260901234503 83 0 0.0 0.0 0.00 0.00 0.00 50 1016.1
20260901233002 84 0 0.0 0.0 0.00 0.00 0.00 49 1016.0
20260901231502 84 0 0.0 0.0 0.00 0.00 0.00 48 1016.1
20260901230005 84 0 0.0 0.0 0.00 0.00 0.00 47 1016.2
20260901224503 85 0 0.0 0.0 0.00 0.00 0.00 47 1016.2
20260901223003 85 0 0.0 0.0 0.00 0.00 0.00 48 1016.2
20260901221502 85 0 0.0 0.0 0.00 0.00 0.00 46 1016.3
20260901220002 86 0 0.0 0.0 0.00 0.00 0.00 46 1016.2
20260901214503 85 0 0.0 0.0 0.00 0.00 0.00 47 1016.2
20260901213003 86 0 0.0 0.0 0.00 0.00 0.00 47 1016.1
20260901211503 86 0 0.0 0.0 0.00 0.00 0.00 50 1016.2
20260901210004 87 0 0.0 0.0 0.00 0.00 0.00 50 1016.2
20260901204502 87 0 0.0 0.0 0.00 0.00 0.00 51 1016.1
20260901203004 88 0 0.0 0.0 0.00 0.00 0.00 51 1016.1
20260901201503 88 0 0.0 0.0 0.00 0.00 0.00 51 1016.0
20260901200003 88 0 0.0 0.0 0.00 0.00 0.00 51 1015.9
20260901194504 88 0 0.0 0.0 0.00 0.00 0.00 52 1015.9
20260901193004 88 0 0.0 0.0 0.00 0.00 0.00 51 1016.1
20260901191502 89 0 0.0 0.0 0.00 0.00 0.00 49 1016.0
20260901190005 89 0 0.0 0.0 0.00 0.00 0.00 48 1015.9
20260901184503 90 0 0.0 0.0 0.00 0.00 0.00 46 1015.7
20260901183003 90 0 0.0 0.0 0.00 0.00 0.00 46 1015.6
20260901181502 90 0 0.0 0.0 0.00 0.00 0.00 46 1015.5
20260901180004 89 0 0.0 0.0 0.00 0.00 0.00 47 1015.4
20260901174502 90 0 0.0 0.0 0.00 0.00 0.00 46 1015.2
20260901173002 90 0 0.0 0.0 0.00 0.00 0.00 45 1015.1
20260901171502 91 0 0.0 0.0 0.00 0.00 0.00 44 1014.6
20260901170003 92 0 0.0 0.0 0.00 0.00 0.00 44 1014.4
20260901164502 92 0 0.0 0.0 0.00 0.00 0.00 43 1014.3
20260901163004 92 0 0.0 0.0 0.00 0.00 0.00 43 1014.2
20260901161503 92 0 0.0 0.0 0.00 0.00 0.00 42 1014.1
20260901160002 93 0 0.0 0.0 0.00 0.00 0.00 40 1014.0
20260901154503 95 0 0.0 0.0 0.00 0.00 0.00 36 1014.1